CAPE
129 0 0 19 4 11 0 2 3 4 0 0 3 5 14 3 2 0 3 3 38 55 36 61 66 11 60 33 16 25 3 2
85 0 0 0 9 1 3 2 1 0 0 2 1 1 1 2 0 0 0 8 28 34 39 40 44 51 25 31 35 3 6 0
92 0 0 0 12 3 4 4 0 0 0 0 3 1 1 0 1 0 0 7 12 7 22 52 55 48 18 14 5 0 0 0
78 0 0 0 23 0 2 3 0 0 1 1 7 2 2 1 0 3 0 3 5 10 55 41 52 92 36 27 33 1 2 0
98 6 0 0 2 0 0 1 1 0 0 2 0 2 1 0 1 0 0 1 16 14 37 44 44 119 91 67 52 89 69 13
105 49 0 0 1 2 0 0 1 1 2 2 0 1 1 0 1 0 0 0 15 27 66 59 137 30 116 100 92 107 152 80
4 131 5 0 3 4 0 0 1 3 2 1 0 0 0 0 0 0 0 0 1 20 45 55 72 53 72 67 40 36 82 77
0 100 71 0 3 14 0 0 3 2 4 1 1 0 0 0 0 0 0 0 0 0 17 40 24 21 68 67 42 26 46 52
0 36 126 7 0 10 4 0 1 4 2 3 0 0 0 0 0 0 0 0 0 0 0 7 19 27 17 53 39 17 3 5
0 6 168 51 0 0 0 0 0 2 4 2 4 0 0 0 0 0 0 0 0 0 0 2 4 25 32 10 9 0 0 5
0 0 198 164 0 0 9 0 0 0 2 3 3 6 5 1 0 0 0 0 0 0 0 8 5 12 28 23 17 1 1 5
13 24 207 282 97 7 10 0 0 0 0 1 3 5 4 6 1 0 0 0 0 0 0 6 16 33 33 11 3 0 1 1
6 63 170 345 255 76 17 0 0 0 0 0 0 3 5 8 4 4 2 0 0 0 0 3 0 0 8 10 9 12 11 2
27 183 188 338 351 305 136 40 4 0 15 5 1 0 1 4 16 4 2 3 0 0 0 3 0 0 0 0 0 0 0 0
0 22 193 328 402 407 395 241 95 23 0 31 27 11 2 0 6 48 11 32 12 0 0 0 1 0 0 0 0 0 0 0
0 0 0 2 119 381 409 482 374 171 77 13 30 81 80 53 31 32 41 36 40 31 1 0 1 1 0 0 0 0 0 0
1 0 0 0 0 0 0 202 380 417 236 159 73 38 109 98 102 143 137 110 49 45 33 24 2 0 0 0 0 0 2 5
0 0 3 1 0 0 0 0 0 359 408 380 249 140 76 120 128 114 104 89 68 57 51 53 38 43 24 0 0 0 20 44
0 0 0 0 0 0 0 0 0 1 86 417 386 316 200 137 101 93 109 103 99 91 72 48 51 55 23 11 0 0 2 4
CIN
-93 0 0 -218 -240 -62 0 -0 -3 -1 -5 -0 -1 -2 -0 0 0 0 -19 -22 -24 -31 -13 -20 -16 -35 -9 -23 -17 -12 -4 -4
-85 0 0 -0 -245 -1 0 -1 -3 0 0 0 0 -1 0 0 -0 0 0 -13 -21 -38 -20 -24 -33 -47 -66 -54 -18 -31 -39 0
-102 0 0 0 -201 -9 -10 -1 0 0 0 -0 -0 0 0 0 -1 0 -1 -28 -36 -31 -32 -34 -36 -50 -58 -31 -46 -50 0 0
-99 0 0 0 -221 0 -5 -0 0 0 -1 -2 0 0 0 0 0 -6 0 -11 -47 -38 -20 -21 -28 -27 -27 -28 -27 -16 -31 0
-60 -57 0 0 -116 0 0 -11 0 0 -0 0 0 0 0 0 -0 -1 0 -18 -42 -25 -12 -20 -36 -30 -35 -13 -19 -25 -21 -57
-31 -168 0 0 -131 -86 0 0 -0 0 0 0 0 0 0 -0 -0 0 0 0 -8 -22 -4 -12 -28 -39 -17 -9 -24 -16 -11 -20
-13 -86 -65 0 -352 -270 0 0 0 -0 -1 -0 0 0 0 -0 0 0 0 0 -16 -54 -7 -24 -43 -34 -19 -24 -26 -10 -27 -23
0 -53 -144 0 -168 -398 0 0 -1 -1 0 0 -1 -0 0 0 0 0 0 0 0 0 -38 -48 -34 -40 -37 -37 -30 -51 -8 -16
0 -37 -98 -140 0 -364 -436 0 -0 -7 -5 -0 0 0 0 0 0 0 0 0 0 0 0 -51 -46 -55 -57 -50 -24 -47 -28 -48
0 -23 -84 -160 0 0 0 0 0 -1 -1 -1 0 -1 0 -0 0 0 0 0 0 0 -3 -48 -60 -63 -81 -57 -40 -1 0 -56
-8 0 -81 -126 0 0 -361 0 0 0 -1 -3 -1 -0 -0 -1 0 0 0 0 0 0 -1 -10 -28 -30 -8 -30 -49 -34 -55 -60
-15 -33 -59 -108 -169 -170 -333 0 0 0 0 -1 -0 0 -1 -1 -1 0 0 0 0 0 0 -2 -4 -2 -2 -24 -51 -5 -58 -39
-5 -15 -24 -75 -108 -179 -289 0 0 0 -31 0 -0 -0 -1 -0 -1 -0 -1 0 0 0 0 -1 0 0 -4 -9 -25 -35 -31 -47
-14 -4 -11 -31 -75 -100 -160 -265 -179 0 -306 -299 -236 0 -0 -0 -366 -98 -1 -3 -0 0 0 -1 0 0 0 0 0 0 0 0
0 -10 -5 -8 -25 -57 -83 -136 -238 -293 0 -286 -356 -439 -188 0 -258 -297 -353 -257 -157 0 0 0 -1 0 0 0 0 0 0 0
0 0 0 -1 -24 -17 -36 -58 -111 -202 -265 -306 -318 -295 -304 -303 -335 -314 -271 -241 -222 -202 -124 0 -0 -0 -1 0 0 0 0 0
-174 -1 0 -3 -2 0 0 -16 -36 -79 -184 -248 -263 -304 -270 -306 -278 -212 -199 -219 -243 -191 -195 -191 -45 0 0 0 0 -5 -5 -4
0 0 -259 -205 0 0 0 0 0 -44 -101 -163 -187 -216 -261 -268 -262 -254 -285 -272 -230 -238 -227 -211 -238 -223 -280 -31 0 -6 -96 -80
0 0 0 0 0 0 0 0 -93 -158 -33 -80 -118 -151 -183 -221 -220 -265 -269 -249 -229 -234 -232 -202 -155 -186 -200 -221 -15 -1 -81 -74
Wind_Speed
3 6 7 9 10 10 10 9 9 9 8 7 6 6 2 9 12 15 17 18 16 13 17 12 11 10 9 10 12 13 8 7
3 5 6 8 8 8 9 9 8 8 6 5 5 5 3 7 9 15 15 15 17 18 16 14 11 14 11 12 13 13 11 11
3 3 5 7 8 8 8 8 7 6 6 4 3 2 4 8 12 13 13 14 15 16 14 13 10 13 14 12 13 14 14 13
5 3 4 7 9 9 9 9 9 9 10 11 5 1 4 8 10 13 11 14 14 17 13 13 11 11 14 15 12 16 16 13
8 6 6 8 10 9 9 9 10 11 16 14 17 11 13 15 13 14 11 13 16 17 16 15 21 20 12 13 13 13 10 9
8 7 8 8 9 8 9 10 11 13 17 16 15 16 14 15 14 9 16 14 25 15 20 19 20 28 24 13 11 12 11 9
4 8 8 8 8 8 9 12 13 15 16 19 19 19 16 16 18 13 13 15 21 25 29 22 21 19 16 15 13 13 13 12
1 7 10 10 9 8 10 12 13 15 16 18 18 19 18 20 24 25 18 19 21 25 15 15 19 19 15 14 15 15 21 17
1 5 9 10 10 9 10 10 11 13 16 17 18 18 16 16 19 24 25 26 20 22 20 17 19 17 18 17 16 18 26 35
4 3 7 9 10 10 10 9 10 13 13 15 17 18 19 17 16 18 22 26 28 24 19 23 26 29 28 28 26 27 21 21
4 3 6 7 8 8 9 9 10 10 12 14 16 18 17 16 16 17 19 23 27 28 28 25 27 26 26 23 20 22 24 21
8 4 4 5 5 5 6 7 9 10 9 11 13 14 15 16 14 16 17 19 23 25 26 22 22 25 24 23 23 21 22 22
17 9 3 4 4 5 5 5 5 7 9 8 10 12 14 15 14 15 17 16 19 22 23 21 21 21 22 24 23 21 21 22
18 11 8 4 5 6 6 5 5 6 5 7 8 10 13 16 15 15 18 17 17 19 23 23 21 19 20 23 25 25 26 25
21 18 15 11 9 7 7 8 8 8 9 8 9 11 12 13 14 15 17 16 15 17 21 22 22 22 23 23 24 25 25 25
22 21 21 20 18 14 11 10 9 10 10 11 11 10 10 11 13 15 15 17 17 18 18 20 20 22 21 22 22 22 22 23
23 22 22 23 24 25 26 24 13 11 11 12 14 14 13 14 14 14 15 16 17 17 20 19 21 22 22 23 23 23 24 25
24 26 26 27 29 30 31 33 31 18 14 15 17 19 18 18 18 17 18 19 19 20 21 21 23 23 23 24 25 27 29 30
24 25 26 28 31 34 36 36 37 36 32 21 20 21 22 23 22 21 21 21 21 22 23 23 25 25 26 26 25 27 28 31
Wind_Direction
31 30 62 88 90 93 89 95 78 65 59 41 15 338 141 155 194 202 215 220 216 211 230 203 211 195 217 222 232 243 240 254
46 29 59 99 87 88 79 86 70 65 53 41 347 340 94 133 154 179 197 220 215 224 236 233 232 234 233 233 242 241 252 256
99 39 54 103 94 91 95 89 89 81 71 67 353 76 107 129 132 164 212 214 209 226 232 233 229 237 235 230 243 246 260 262
141 108 101 111 116 110 99 101 112 105 106 108 83 54 112 144 145 149 190 178 195 225 234 227 213 229 231 235 232 248 256 259
153 145 132 128 128 107 99 94 114 118 129 125 133 130 144 149 152 145 165 198 193 190 189 182 174 174 190 187 238 246 245 227
157 156 141 132 124 108 102 102 113 124 137 133 139 147 151 156 162 195 157 164 166 179 180 176 173 175 175 197 224 215 237 228
153 153 142 135 122 108 114 114 119 131 138 147 152 152 153 162 168 186 181 175 172 169 180 180 178 182 190 188 214 230 229 222
189 154 148 143 137 123 125 125 126 132 141 150 153 157 156 160 172 174 184 181 182 186 196 207 198 200 207 214 220 241 206 255
289 172 156 150 146 137 133 130 127 134 144 149 155 158 160 165 170 178 182 185 194 197 200 218 212 231 227 217 235 242 268 267
302 213 168 156 154 151 145 136 136 143 142 151 158 163 167 168 170 177 184 188 189 191 196 198 199 199 204 206 210 210 219 219
235 215 180 169 162 155 152 147 147 145 150 155 160 167 166 169 172 177 181 187 190 191 192 195 199 205 205 210 219 219 220 226
302 268 202 193 189 179 170 160 153 153 151 159 167 169 173 176 174 177 182 185 190 193 196 199 201 205 210 215 219 226 229 236
309 318 289 215 248 235 205 196 189 174 169 167 175 179 180 182 187 187 185 187 190 196 201 206 209 210 210 212 220 230 232 239
329 327 311 270 279 261 252 235 233 248 219 192 186 190 192 195 195 195 193 194 196 199 202 206 210 216 218 222 224 227 230 235
333 334 314 303 297 288 279 274 266 262 259 242 218 206 207 210 209 206 204 205 210 209 207 211 216 222 224 225 227 232 239 247
321 320 319 327 306 298 297 292 279 276 268 251 242 244 233 228 224 224 225 222 222 222 224 226 230 228 229 231 235 242 248 255
314 314 316 312 312 307 310 299 293 285 272 262 268 256 252 239 239 250 246 238 235 240 236 239 238 239 240 241 249 261 264 269
310 310 307 307 308 307 303 301 306 293 280 279 277 274 265 258 259 259 251 249 255 249 247 248 245 252 249 251 255 264 273 277
313 311 313 312 309 304 300 299 297 297 300 285 283 280 276 272 268 262 262 265 263 265 264 261 265 265 269 269 267 270 272 277